{"data":{"norad_id":58855,"intl_designator":"2024-019C","name":"STARLINK-31237","alt_names":[],"object_type":"PAYLOAD","status":"ACTIVE","operator":null,"country":"US","launch_date":"2024-01-29","launch_site_code":"AFETR","launch_vehicle":null,"mission":null,"orbit_class":"UNKNOWN","rcs_meters":null,"size_class":null,"mass_kg":null,"dimensions":null,"purposes":["comms"],"wikipedia_slug":null,"has_3d_model":false,"image_url":null,"decayed_at":null,"tle_current":{"epoch":"2026-05-25T02:42:18.207072Z","epoch_age_seconds":68526,"freshness":"FRESH","line1":"1 58855U 24019C   26145.11271073 -.00002070  00000+0 -65713-4 0  9993","line2":"2 58855  43.0002 177.0583 0001203 268.5238  91.5476 15.27576227130777","mean_motion":15.27576227,"eccentricity":0.0001203,"inclination_deg":43.0002,"raan_deg":177.0583,"arg_perigee_deg":268.5238,"mean_anomaly_deg":91.5476,"bstar":-6.5713e-5,"rev_number":13077,"period_min":94.26698154553,"perigee_km":482.23499173576,"apogee_km":483.88579582871,"semimajor_km":6861.1973937822,"source":"CELESTRAK","updated_at":"2026-05-25T13:38:18.757735Z"}}}